Year,Month,Day,Hour,Minute,Value (Times are PST for temperature in C)
2017,09,03,00,00,19.00
2017,09,03,00,01,19.00
2017,09,03,00,02,19.00
2017,09,03,00,03,19.00
2017,09,03,00,04,19.00
2017,09,03,00,05,18.90
2017,09,03,00,06,18.90
2017,09,03,00,07,18.90
2017,09,03,00,08,18.90
2017,09,03,00,09,18.80
2017,09,03,00,10,18.80
2017,09,03,00,11,18.80
2017,09,03,00,12,18.80
2017,09,03,00,13,18.80
2017,09,03,00,14,18.70
2017,09,03,00,15,18.70
2017,09,03,00,16,18.70
2017,09,03,00,17,18.70
2017,09,03,00,18,18.70
2017,09,03,00,19,18.60
2017,09,03,00,20,18.60
2017,09,03,00,21,18.60
2017,09,03,00,22,18.60
2017,09,03,00,23,18.50
2017,09,03,00,24,18.50
2017,09,03,00,25,18.50
2017,09,03,00,26,18.40
2017,09,03,00,27,18.40
2017,09,03,00,28,18.40
2017,09,03,00,29,18.40
2017,09,03,00,30,18.40
2017,09,03,00,31,18.40
2017,09,03,00,32,18.40
2017,09,03,00,33,18.40
2017,09,03,00,34,18.40
2017,09,03,00,35,18.40
2017,09,03,00,36,18.40
2017,09,03,00,37,18.40
2017,09,03,00,38,18.40
2017,09,03,00,39,18.40
2017,09,03,00,40,18.40
2017,09,03,00,41,18.40
2017,09,03,00,42,18.40
2017,09,03,00,43,18.40
2017,09,03,00,44,18.40
2017,09,03,00,45,18.40
2017,09,03,00,46,18.40
2017,09,03,00,47,18.40
2017,09,03,00,48,18.40
2017,09,03,00,49,18.40
2017,09,03,00,50,18.40
2017,09,03,00,51,18.30
2017,09,03,00,52,18.30
2017,09,03,00,53,18.30
2017,09,03,00,54,18.30
2017,09,03,00,55,18.30
2017,09,03,00,56,18.30
2017,09,03,00,57,18.20
2017,09,03,00,58,18.20
2017,09,03,00,59,18.20
2017,09,03,01,00,18.20
2017,09,03,01,01,18.20
2017,09,03,01,02,18.10
2017,09,03,01,03,18.10
2017,09,03,01,04,18.10
2017,09,03,01,05,18.10
2017,09,03,01,06,18.10
2017,09,03,01,07,18.10
2017,09,03,01,08,18.10
2017,09,03,01,09,18.10
2017,09,03,01,10,18.10
2017,09,03,01,11,18.10
2017,09,03,01,12,18.10
2017,09,03,01,13,18.00
2017,09,03,01,14,18.00
2017,09,03,01,15,18.00
2017,09,03,01,16,18.00
2017,09,03,01,17,18.00
2017,09,03,01,18,18.00
2017,09,03,01,19,18.00
2017,09,03,01,20,18.00
2017,09,03,01,21,17.90
2017,09,03,01,22,17.90
2017,09,03,01,23,17.90
2017,09,03,01,24,17.90
2017,09,03,01,25,17.90
2017,09,03,01,26,17.90
2017,09,03,01,27,17.80
2017,09,03,01,28,17.80
2017,09,03,01,29,17.80
2017,09,03,01,30,17.80
2017,09,03,01,31,17.80
2017,09,03,01,32,17.80
2017,09,03,01,33,17.70
2017,09,03,01,34,17.70
2017,09,03,01,35,17.70
2017,09,03,01,36,17.70
2017,09,03,01,37,17.70
2017,09,03,01,38,17.70
2017,09,03,01,39,17.60
2017,09,03,01,40,17.60
2017,09,03,01,41,17.60
2017,09,03,01,42,17.60
2017,09,03,01,43,17.60
2017,09,03,01,44,17.60
2017,09,03,01,45,17.60
2017,09,03,01,46,17.60
2017,09,03,01,47,17.60
2017,09,03,01,48,17.60
2017,09,03,01,49,17.60
2017,09,03,01,50,17.60
2017,09,03,01,51,17.60
2017,09,03,01,52,17.50
2017,09,03,01,53,17.50
2017,09,03,01,54,17.50
2017,09,03,01,55,17.50
2017,09,03,01,56,17.40
2017,09,03,01,57,17.40
2017,09,03,01,58,17.40
2017,09,03,01,59,17.40
2017,09,03,02,00,17.40
2017,09,03,02,01,17.40
2017,09,03,02,02,17.40
2017,09,03,02,03,17.40
2017,09,03,02,04,17.30
2017,09,03,02,05,17.30
2017,09,03,02,06,17.30
2017,09,03,02,07,17.30
2017,09,03,02,08,17.30
2017,09,03,02,09,17.30
2017,09,03,02,10,17.30
2017,09,03,02,11,17.30
2017,09,03,02,12,17.30
2017,09,03,02,13,17.30
2017,09,03,02,14,17.30
2017,09,03,02,15,17.30
2017,09,03,02,16,17.20
2017,09,03,02,17,17.20
2017,09,03,02,18,17.20
2017,09,03,02,19,17.20
2017,09,03,02,20,17.20
2017,09,03,02,21,17.20
2017,09,03,02,22,17.20
2017,09,03,02,23,17.20
2017,09,03,02,24,17.20
2017,09,03,02,25,17.10
2017,09,03,02,26,17.10
2017,09,03,02,27,17.10
2017,09,03,02,28,17.10
2017,09,03,02,29,17.10
2017,09,03,02,30,17.10
2017,09,03,02,31,17.10
2017,09,03,02,32,17.10
2017,09,03,02,33,17.10
2017,09,03,02,34,17.10
2017,09,03,02,35,17.10
2017,09,03,02,36,17.00
2017,09,03,02,37,17.00
2017,09,03,02,38,17.00
2017,09,03,02,39,17.00
2017,09,03,02,40,16.90
2017,09,03,02,41,16.90
2017,09,03,02,42,16.90
2017,09,03,02,43,16.90
2017,09,03,02,44,16.90
2017,09,03,02,45,16.80
2017,09,03,02,46,16.80
2017,09,03,02,47,16.80
2017,09,03,02,48,16.80
2017,09,03,02,49,16.80
2017,09,03,02,50,16.80
2017,09,03,02,51,16.80
2017,09,03,02,52,16.70
2017,09,03,02,53,16.70
2017,09,03,02,54,16.70
2017,09,03,02,55,16.70
2017,09,03,02,56,16.70
2017,09,03,02,57,16.70
2017,09,03,02,58,16.70
2017,09,03,02,59,16.70
2017,09,03,03,00,16.70
2017,09,03,03,01,16.70
2017,09,03,03,02,16.70
2017,09,03,03,03,16.70
2017,09,03,03,04,16.70
2017,09,03,03,05,16.70
2017,09,03,03,06,16.70
2017,09,03,03,07,16.70
2017,09,03,03,08,16.70
2017,09,03,03,09,16.60
2017,09,03,03,10,16.60
2017,09,03,03,11,16.60
2017,09,03,03,12,16.60
2017,09,03,03,13,16.60
2017,09,03,03,14,16.60
2017,09,03,03,15,16.60
2017,09,03,03,16,16.60
2017,09,03,03,17,16.60
2017,09,03,03,18,16.60
2017,09,03,03,19,16.60
2017,09,03,03,20,16.60
2017,09,03,03,21,16.50
2017,09,03,03,22,16.50
2017,09,03,03,23,16.50
2017,09,03,03,24,16.50
2017,09,03,03,25,16.50
2017,09,03,03,26,16.50
2017,09,03,03,27,16.40
2017,09,03,03,28,16.40
2017,09,03,03,29,16.40
2017,09,03,03,30,16.40
2017,09,03,03,31,16.40
2017,09,03,03,32,16.40
2017,09,03,03,33,16.40
2017,09,03,03,34,16.40
2017,09,03,03,35,16.40
2017,09,03,03,36,16.40
2017,09,03,03,37,16.30
2017,09,03,03,38,16.30
2017,09,03,03,39,16.30
2017,09,03,03,40,16.30
2017,09,03,03,41,16.30
2017,09,03,03,42,16.30
2017,09,03,03,43,16.30
2017,09,03,03,44,16.30
2017,09,03,03,45,16.30
2017,09,03,03,46,16.30
2017,09,03,03,47,16.30
2017,09,03,03,48,16.30
2017,09,03,03,49,16.30
2017,09,03,03,50,16.30
2017,09,03,03,51,16.30
2017,09,03,03,52,16.30
2017,09,03,03,53,16.20
2017,09,03,03,54,16.20
2017,09,03,03,55,16.20
2017,09,03,03,56,16.20
2017,09,03,03,57,16.20
2017,09,03,03,58,16.10
2017,09,03,03,59,16.10
2017,09,03,04,00,16.10
2017,09,03,04,01,16.10
2017,09,03,04,02,16.10
2017,09,03,04,03,16.10
2017,09,03,04,04,16.10
2017,09,03,04,05,16.00
2017,09,03,04,06,16.00
2017,09,03,04,07,16.00
2017,09,03,04,08,16.00
2017,09,03,04,09,15.90
2017,09,03,04,10,15.90
2017,09,03,04,11,15.90
2017,09,03,04,12,15.90
2017,09,03,04,13,15.90
2017,09,03,04,14,15.90
2017,09,03,04,15,15.90
2017,09,03,04,16,15.80
2017,09,03,04,17,15.80
2017,09,03,04,18,15.80
2017,09,03,04,19,15.80
2017,09,03,04,20,15.80
2017,09,03,04,21,15.80
2017,09,03,04,22,15.80
2017,09,03,04,23,15.80
2017,09,03,04,24,15.80
2017,09,03,04,25,15.80
2017,09,03,04,26,15.80
2017,09,03,04,27,15.80
2017,09,03,04,28,15.80
2017,09,03,04,29,15.80
2017,09,03,04,30,15.70
2017,09,03,04,31,15.70
2017,09,03,04,32,15.70
2017,09,03,04,33,15.70
2017,09,03,04,34,15.70
2017,09,03,04,35,15.70
2017,09,03,04,36,15.70
2017,09,03,04,37,15.70
2017,09,03,04,38,15.70
2017,09,03,04,39,15.70
2017,09,03,04,40,15.70
2017,09,03,04,41,15.70
2017,09,03,04,42,15.70
2017,09,03,04,43,15.70
2017,09,03,04,44,15.70
2017,09,03,04,45,15.70
2017,09,03,04,46,15.70
2017,09,03,04,47,15.70
2017,09,03,04,48,15.70
2017,09,03,04,49,15.70
2017,09,03,04,50,15.70
2017,09,03,04,51,15.70
2017,09,03,04,52,15.70
2017,09,03,04,53,15.60
2017,09,03,04,54,15.60
2017,09,03,04,55,15.60
2017,09,03,04,56,15.60
2017,09,03,04,57,15.60
2017,09,03,04,58,15.60
2017,09,03,04,59,15.50
2017,09,03,05,00,15.50
2017,09,03,05,01,15.50
2017,09,03,05,02,15.50
2017,09,03,05,03,15.50
2017,09,03,05,04,15.40
2017,09,03,05,05,15.40
2017,09,03,05,06,15.40
2017,09,03,05,07,15.40
2017,09,03,05,08,15.40
2017,09,03,05,09,15.40
2017,09,03,05,10,15.40
2017,09,03,05,11,15.40
2017,09,03,05,12,15.30
2017,09,03,05,13,15.30
2017,09,03,05,14,15.30
2017,09,03,05,15,15.30
2017,09,03,05,16,15.30
2017,09,03,05,17,15.30
2017,09,03,05,18,15.30
2017,09,03,05,19,15.30
2017,09,03,05,20,15.30
2017,09,03,05,21,15.30
2017,09,03,05,22,15.30
2017,09,03,05,23,15.30
2017,09,03,05,24,15.30
2017,09,03,05,25,15.30
2017,09,03,05,26,15.20
2017,09,03,05,27,15.20
2017,09,03,05,28,15.20
2017,09,03,05,29,15.20
2017,09,03,05,30,15.20
2017,09,03,05,31,15.20
2017,09,03,05,32,15.20
2017,09,03,05,33,15.20
2017,09,03,05,34,15.20
2017,09,03,05,35,15.20
2017,09,03,05,36,15.20
2017,09,03,05,37,15.20
2017,09,03,05,38,15.20
2017,09,03,05,39,15.20
2017,09,03,05,40,15.10
2017,09,03,05,41,15.10
2017,09,03,05,42,15.10
2017,09,03,05,43,15.10
2017,09,03,05,44,15.10
2017,09,03,05,45,15.10
2017,09,03,05,46,15.10
2017,09,03,05,47,15.00
2017,09,03,05,48,15.00
2017,09,03,05,49,15.00
2017,09,03,05,50,15.00
2017,09,03,05,51,14.90
2017,09,03,05,52,14.90
2017,09,03,05,53,14.90
2017,09,03,05,54,14.90
2017,09,03,05,55,14.90
2017,09,03,05,56,14.90
2017,09,03,05,57,14.90
2017,09,03,05,58,14.90
2017,09,03,05,59,14.90
2017,09,03,06,00,14.90
2017,09,03,06,01,14.90
2017,09,03,06,02,14.90
2017,09,03,06,03,14.90
2017,09,03,06,04,14.90
2017,09,03,06,05,14.80
2017,09,03,06,06,14.80
2017,09,03,06,07,14.80
2017,09,03,06,08,14.80
2017,09,03,06,09,14.80
2017,09,03,06,10,14.80
2017,09,03,06,11,14.80
2017,09,03,06,12,14.80
2017,09,03,06,13,14.80
2017,09,03,06,14,14.70
2017,09,03,06,15,14.70
2017,09,03,06,16,14.70
2017,09,03,06,17,14.70
2017,09,03,06,18,14.70
2017,09,03,06,19,14.70
2017,09,03,06,20,14.70
2017,09,03,06,21,14.70
2017,09,03,06,22,14.70
2017,09,03,06,23,14.60
2017,09,03,06,24,14.60
2017,09,03,06,25,14.60
2017,09,03,06,26,14.60
2017,09,03,06,27,14.60
2017,09,03,06,28,14.60
2017,09,03,06,29,14.60
2017,09,03,06,30,14.60
2017,09,03,06,31,14.60
2017,09,03,06,32,14.60
2017,09,03,06,33,14.60
2017,09,03,06,34,14.60
2017,09,03,06,35,14.60
2017,09,03,06,36,14.60
2017,09,03,06,37,14.60
2017,09,03,06,38,14.60
2017,09,03,06,39,14.60
2017,09,03,06,40,14.60
2017,09,03,06,41,14.60
2017,09,03,06,42,14.50
2017,09,03,06,43,14.50
2017,09,03,06,44,14.60
2017,09,03,06,45,14.50
2017,09,03,06,46,14.50
2017,09,03,06,47,14.50
2017,09,03,06,48,14.50
2017,09,03,06,49,14.50
2017,09,03,06,50,14.50
2017,09,03,06,51,14.50
2017,09,03,06,52,14.50
2017,09,03,06,53,14.50
2017,09,03,06,54,14.50
2017,09,03,06,55,14.50
2017,09,03,06,56,14.60
2017,09,03,06,57,14.60
2017,09,03,06,58,14.60
2017,09,03,06,59,14.60
2017,09,03,07,00,14.60
2017,09,03,07,01,14.60
2017,09,03,07,02,14.60
2017,09,03,07,03,14.60
2017,09,03,07,04,14.60
2017,09,03,07,05,14.60
2017,09,03,07,06,14.70
2017,09,03,07,07,14.70
2017,09,03,07,08,14.70
2017,09,03,07,09,14.70
2017,09,03,07,10,14.70
2017,09,03,07,11,14.70
2017,09,03,07,12,14.70
2017,09,03,07,13,14.70
2017,09,03,07,14,14.80
2017,09,03,07,15,14.80
2017,09,03,07,16,14.80
2017,09,03,07,17,14.80
2017,09,03,07,18,14.80
2017,09,03,07,19,14.80
2017,09,03,07,20,14.80
2017,09,03,07,21,14.80
2017,09,03,07,22,14.90
2017,09,03,07,23,14.90
2017,09,03,07,24,14.90
2017,09,03,07,25,14.90
2017,09,03,07,26,15.00
2017,09,03,07,27,15.00
2017,09,03,07,28,15.00
2017,09,03,07,29,15.00
2017,09,03,07,30,15.00
2017,09,03,07,31,15.10
2017,09,03,07,32,15.10
2017,09,03,07,33,15.10
2017,09,03,07,34,15.20
2017,09,03,07,35,15.20
2017,09,03,07,36,15.20
2017,09,03,07,37,15.20
2017,09,03,07,38,15.30
2017,09,03,07,39,15.30
2017,09,03,07,40,15.30
2017,09,03,07,41,15.40
2017,09,03,07,42,15.40
2017,09,03,07,43,15.40
2017,09,03,07,44,15.50
2017,09,03,07,45,15.50
2017,09,03,07,46,15.60
2017,09,03,07,47,15.70
2017,09,03,07,48,15.70
2017,09,03,07,49,15.80
2017,09,03,07,50,15.80
2017,09,03,07,51,15.90
2017,09,03,07,52,15.90
2017,09,03,07,53,16.00
2017,09,03,07,54,16.10
2017,09,03,07,55,16.20
2017,09,03,07,56,16.20
2017,09,03,07,57,16.30
2017,09,03,07,58,16.40
2017,09,03,07,59,16.50
2017,09,03,08,00,16.50
2017,09,03,08,01,16.60
2017,09,03,08,02,16.70
2017,09,03,08,03,16.80
2017,09,03,08,04,16.90
2017,09,03,08,05,17.00
2017,09,03,08,06,17.10
2017,09,03,08,07,17.20
2017,09,03,08,08,17.20
2017,09,03,08,09,17.30
2017,09,03,08,10,17.40
2017,09,03,08,11,17.50
2017,09,03,08,12,17.60
2017,09,03,08,13,17.60
2017,09,03,08,14,17.70
2017,09,03,08,15,17.80
2017,09,03,08,16,17.80
2017,09,03,08,17,17.90
2017,09,03,08,18,17.90
2017,09,03,08,19,17.90
2017,09,03,08,20,18.00
2017,09,03,08,21,18.00
2017,09,03,08,22,18.10
2017,09,03,08,23,18.10
2017,09,03,08,24,18.20
2017,09,03,08,25,18.30
2017,09,03,08,26,18.40
2017,09,03,08,27,18.50
2017,09,03,08,28,18.50
2017,09,03,08,29,18.60
2017,09,03,08,30,18.70
2017,09,03,08,31,18.80
2017,09,03,08,32,18.90
2017,09,03,08,33,19.00
2017,09,03,08,34,19.10
2017,09,03,08,35,19.10
2017,09,03,08,36,19.20
2017,09,03,08,37,19.30
2017,09,03,08,38,19.30
2017,09,03,08,39,19.40
2017,09,03,08,40,19.40
2017,09,03,08,41,19.50
2017,09,03,08,42,19.50
2017,09,03,08,43,19.60
2017,09,03,08,44,19.70
2017,09,03,08,45,19.70
2017,09,03,08,46,19.80
2017,09,03,08,47,19.90
2017,09,03,08,48,20.00
2017,09,03,08,49,20.00
2017,09,03,08,50,20.10
2017,09,03,08,51,20.20
2017,09,03,08,52,20.30
2017,09,03,08,53,20.40
2017,09,03,08,54,20.50
2017,09,03,08,55,20.60
2017,09,03,08,56,20.70
2017,09,03,08,57,20.80
2017,09,03,08,58,20.90
2017,09,03,08,59,20.90
2017,09,03,09,00,20.90
2017,09,03,09,01,21.00
2017,09,03,09,02,21.00
2017,09,03,09,03,21.00
2017,09,03,09,04,21.10
2017,09,03,09,05,21.10
2017,09,03,09,06,21.10
2017,09,03,09,07,21.10
2017,09,03,09,08,21.10
2017,09,03,09,09,21.10
2017,09,03,09,10,21.00
2017,09,03,09,11,21.00
2017,09,03,09,12,20.90
2017,09,03,09,13,20.90
2017,09,03,09,14,20.90
2017,09,03,09,15,20.90
2017,09,03,09,16,20.90
2017,09,03,09,17,21.00
2017,09,03,09,18,21.00
2017,09,03,09,19,21.00
2017,09,03,09,20,21.00
2017,09,03,09,21,21.10
2017,09,03,09,22,21.10
2017,09,03,09,23,21.10
2017,09,03,09,24,21.20
2017,09,03,09,25,21.20
2017,09,03,09,26,21.20
2017,09,03,09,27,21.30
2017,09,03,09,28,21.30
2017,09,03,09,29,21.30
2017,09,03,09,30,21.30
2017,09,03,09,31,21.40
2017,09,03,09,32,21.40
2017,09,03,09,33,21.40
2017,09,03,09,34,21.40
2017,09,03,09,35,21.40
2017,09,03,09,36,21.50
2017,09,03,09,37,21.50
2017,09,03,09,38,21.60
2017,09,03,09,39,21.70
2017,09,03,09,40,21.70
2017,09,03,09,41,21.70
2017,09,03,09,42,21.80
2017,09,03,09,43,21.80
2017,09,03,09,44,21.80
2017,09,03,09,45,21.80
2017,09,03,09,46,21.80
2017,09,03,09,47,21.80
2017,09,03,09,48,21.80
2017,09,03,09,49,21.80
2017,09,03,09,50,21.80
2017,09,03,09,51,21.90
2017,09,03,09,52,21.90
2017,09,03,09,53,22.00
2017,09,03,09,54,22.00
2017,09,03,09,55,22.10
2017,09,03,09,56,22.10
2017,09,03,09,57,22.20
2017,09,03,09,58,22.30
2017,09,03,09,59,22.30
2017,09,03,10,00,22.40
2017,09,03,10,01,22.50
2017,09,03,10,02,22.50
2017,09,03,10,03,22.60
2017,09,03,10,04,22.60
2017,09,03,10,05,22.60
2017,09,03,10,06,22.70
2017,09,03,10,07,22.80
2017,09,03,10,08,22.80
2017,09,03,10,09,22.90
2017,09,03,10,10,22.90
2017,09,03,10,11,23.00
2017,09,03,10,12,23.00
2017,09,03,10,13,23.00
2017,09,03,10,14,23.00
2017,09,03,10,15,23.00
2017,09,03,10,16,23.10
2017,09,03,10,17,23.10
2017,09,03,10,18,23.10
2017,09,03,10,19,23.20
2017,09,03,10,20,23.20
2017,09,03,10,21,23.30
2017,09,03,10,22,23.40
2017,09,03,10,23,23.40
2017,09,03,10,24,23.50
2017,09,03,10,25,23.50
2017,09,03,10,26,23.60
2017,09,03,10,27,23.60
2017,09,03,10,28,23.60
2017,09,03,10,29,23.70
2017,09,03,10,30,23.70
2017,09,03,10,31,23.80
2017,09,03,10,32,23.80
2017,09,03,10,33,23.90
2017,09,03,10,34,23.90
2017,09,03,10,35,23.90
2017,09,03,10,36,24.00
2017,09,03,10,37,24.00
2017,09,03,10,38,24.10
2017,09,03,10,39,24.10
2017,09,03,10,40,24.20
2017,09,03,10,41,24.20
2017,09,03,10,42,24.30
2017,09,03,10,43,24.30
2017,09,03,10,44,24.30
2017,09,03,10,45,24.30
2017,09,03,10,46,24.30
2017,09,03,10,47,24.40
2017,09,03,10,48,24.40
2017,09,03,10,49,24.50
2017,09,03,10,50,24.50
2017,09,03,10,51,24.50
2017,09,03,10,52,24.50
2017,09,03,10,53,24.60
2017,09,03,10,54,24.50
2017,09,03,10,55,24.60
2017,09,03,10,56,24.60
2017,09,03,10,57,24.60
2017,09,03,10,58,24.60
2017,09,03,10,59,24.70
2017,09,03,11,00,24.70
2017,09,03,11,01,24.80
2017,09,03,11,02,24.90
2017,09,03,11,03,25.00
2017,09,03,11,04,25.00
2017,09,03,11,05,25.10
2017,09,03,11,06,25.10
2017,09,03,11,07,25.10
2017,09,03,11,08,25.10
2017,09,03,11,09,25.10
2017,09,03,11,10,25.10
2017,09,03,11,11,25.20
2017,09,03,11,12,25.20
2017,09,03,11,13,25.30
2017,09,03,11,14,25.30
2017,09,03,11,15,25.30
2017,09,03,11,16,25.40
2017,09,03,11,17,25.50
2017,09,03,11,18,25.60
2017,09,03,11,19,25.70
2017,09,03,11,20,25.80
2017,09,03,11,21,25.80
2017,09,03,11,22,25.70
2017,09,03,11,23,25.70
2017,09,03,11,24,25.70
2017,09,03,11,25,25.70
2017,09,03,11,26,25.70
2017,09,03,11,27,25.70
2017,09,03,11,28,25.80
2017,09,03,11,29,25.80
2017,09,03,11,30,25.80
2017,09,03,11,31,25.80
2017,09,03,11,32,25.90
2017,09,03,11,33,25.90
2017,09,03,11,34,25.90
2017,09,03,11,35,25.90
2017,09,03,11,36,25.90
2017,09,03,11,37,25.90
2017,09,03,11,38,26.00
2017,09,03,11,39,26.00
2017,09,03,11,40,26.00
2017,09,03,11,41,26.00
2017,09,03,11,42,26.10
2017,09,03,11,43,26.10
2017,09,03,11,44,26.20
2017,09,03,11,45,26.20
2017,09,03,11,46,26.20
2017,09,03,11,47,26.30
2017,09,03,11,48,26.30
2017,09,03,11,49,26.30
2017,09,03,11,50,26.40
2017,09,03,11,51,26.40
2017,09,03,11,52,26.40
2017,09,03,11,53,26.40
2017,09,03,11,54,26.50
2017,09,03,11,55,26.50
2017,09,03,11,56,26.60
2017,09,03,11,57,26.60
2017,09,03,11,58,26.70
2017,09,03,11,59,26.80
2017,09,03,12,00,26.80
2017,09,03,12,01,26.90
2017,09,03,12,02,27.00
2017,09,03,12,03,27.00
2017,09,03,12,04,27.00
2017,09,03,12,05,27.00
2017,09,03,12,06,26.90
2017,09,03,12,07,26.90
2017,09,03,12,08,26.90
2017,09,03,12,09,26.90
2017,09,03,12,10,26.90
2017,09,03,12,11,26.90
2017,09,03,12,12,26.90
2017,09,03,12,13,26.90
2017,09,03,12,14,27.00
2017,09,03,12,15,27.00
2017,09,03,12,16,27.10
2017,09,03,12,17,27.20
2017,09,03,12,18,27.20
2017,09,03,12,19,27.20
2017,09,03,12,20,27.20
2017,09,03,12,21,27.30
2017,09,03,12,22,27.30
2017,09,03,12,23,27.40
2017,09,03,12,24,27.40
2017,09,03,12,25,27.50
2017,09,03,12,26,27.50
2017,09,03,12,27,27.60
2017,09,03,12,28,27.60
2017,09,03,12,29,27.60
2017,09,03,12,30,27.60
2017,09,03,12,31,27.60
2017,09,03,12,32,27.60
2017,09,03,12,33,27.60
2017,09,03,12,34,27.60
2017,09,03,12,35,27.50
2017,09,03,12,36,27.40
2017,09,03,12,37,27.40
2017,09,03,12,38,27.40
2017,09,03,12,39,27.40
2017,09,03,12,40,27.40
2017,09,03,12,41,27.50
2017,09,03,12,42,27.50
2017,09,03,12,43,27.60
2017,09,03,12,44,27.60
2017,09,03,12,45,27.60
2017,09,03,12,46,27.60
2017,09,03,12,47,27.60
2017,09,03,12,48,27.60
2017,09,03,12,49,27.60
2017,09,03,12,50,27.60
2017,09,03,12,51,27.60
2017,09,03,12,52,27.60
2017,09,03,12,53,27.70
2017,09,03,12,54,27.70
2017,09,03,12,55,27.80
2017,09,03,12,56,27.80
2017,09,03,12,57,27.80
2017,09,03,12,58,27.90
2017,09,03,12,59,28.00
2017,09,03,13,00,28.10
2017,09,03,13,01,28.10
2017,09,03,13,02,28.10
2017,09,03,13,03,28.00
2017,09,03,13,04,28.00
2017,09,03,13,05,28.00
2017,09,03,13,06,28.00
2017,09,03,13,07,28.00
2017,09,03,13,08,28.00
2017,09,03,13,09,28.10
2017,09,03,13,10,28.10
2017,09,03,13,11,28.20
2017,09,03,13,12,28.20
2017,09,03,13,13,28.20
2017,09,03,13,14,28.30
2017,09,03,13,15,28.30
2017,09,03,13,16,28.40
2017,09,03,13,17,28.50
2017,09,03,13,18,28.60
2017,09,03,13,19,28.70
2017,09,03,13,20,28.80
2017,09,03,13,21,28.90
2017,09,03,13,22,29.00
2017,09,03,13,23,29.10
2017,09,03,13,24,29.10
2017,09,03,13,25,29.20
2017,09,03,13,26,29.30
2017,09,03,13,27,29.30
2017,09,03,13,28,29.30
2017,09,03,13,29,29.20
2017,09,03,13,30,29.20
2017,09,03,13,31,29.20
2017,09,03,13,32,29.20
2017,09,03,13,33,29.20
2017,09,03,13,34,29.20
2017,09,03,13,35,29.20
2017,09,03,13,36,29.20
2017,09,03,13,37,29.20
2017,09,03,13,38,29.20
2017,09,03,13,39,29.10
2017,09,03,13,40,29.10
2017,09,03,13,41,29.10
2017,09,03,13,42,29.10
2017,09,03,13,43,29.10
2017,09,03,13,44,29.20
2017,09,03,13,45,29.20
2017,09,03,13,46,29.20
2017,09,03,13,47,29.20
2017,09,03,13,48,29.20
2017,09,03,13,49,29.30
2017,09,03,13,50,29.30
2017,09,03,13,51,29.40
2017,09,03,13,52,29.40
2017,09,03,13,53,29.40
2017,09,03,13,54,29.40
2017,09,03,13,55,29.40
2017,09,03,13,56,29.40
2017,09,03,13,57,29.40
2017,09,03,13,58,29.40
2017,09,03,13,59,29.40
2017,09,03,14,00,29.40
2017,09,03,14,01,29.30
2017,09,03,14,02,29.30
2017,09,03,14,03,29.40
2017,09,03,14,04,29.40
2017,09,03,14,05,29.40
2017,09,03,14,06,29.40
2017,09,03,14,07,29.40
2017,09,03,14,08,29.50
2017,09,03,14,09,29.60
2017,09,03,14,10,29.60
2017,09,03,14,11,29.70
2017,09,03,14,12,29.70
2017,09,03,14,13,29.80
2017,09,03,14,14,29.80
2017,09,03,14,15,29.70
2017,09,03,14,16,29.70
2017,09,03,14,17,29.70
2017,09,03,14,18,29.80
2017,09,03,14,19,29.90
2017,09,03,14,20,29.90
2017,09,03,14,21,30.00
2017,09,03,14,22,30.10
2017,09,03,14,23,30.20
2017,09,03,14,24,30.30
2017,09,03,14,25,30.30
2017,09,03,14,26,30.30
2017,09,03,14,27,30.40
2017,09,03,14,28,30.40
2017,09,03,14,29,30.40
2017,09,03,14,30,30.40
2017,09,03,14,31,30.40
2017,09,03,14,32,30.40
2017,09,03,14,33,30.40
2017,09,03,14,34,30.30
2017,09,03,14,35,30.30
2017,09,03,14,36,30.20
2017,09,03,14,37,30.20
2017,09,03,14,38,30.10
2017,09,03,14,39,30.10
2017,09,03,14,40,30.00
2017,09,03,14,41,29.90
2017,09,03,14,42,29.90
2017,09,03,14,43,29.80
2017,09,03,14,44,29.80
2017,09,03,14,45,29.80
2017,09,03,14,46,29.80
2017,09,03,14,47,29.80
2017,09,03,14,48,29.80
2017,09,03,14,49,29.90
2017,09,03,14,50,29.90
2017,09,03,14,51,30.00
2017,09,03,14,52,30.00
2017,09,03,14,53,30.00
2017,09,03,14,54,30.00
2017,09,03,14,55,30.00
2017,09,03,14,56,30.00
2017,09,03,14,57,30.00
2017,09,03,14,58,29.90
2017,09,03,14,59,29.90
2017,09,03,15,00,29.90
2017,09,03,15,01,29.80
2017,09,03,15,02,29.90
2017,09,03,15,03,29.90
2017,09,03,15,04,30.00
2017,09,03,15,05,30.00
2017,09,03,15,06,30.10
2017,09,03,15,07,30.10
2017,09,03,15,08,30.10
2017,09,03,15,09,30.10
2017,09,03,15,10,30.10
2017,09,03,15,11,30.10
2017,09,03,15,12,30.10
2017,09,03,15,13,30.10
2017,09,03,15,14,30.10
2017,09,03,15,15,30.10
2017,09,03,15,16,30.10
2017,09,03,15,17,30.20
2017,09,03,15,18,30.20
2017,09,03,15,19,30.30
2017,09,03,15,20,30.30
2017,09,03,15,21,30.30
2017,09,03,15,22,30.20
2017,09,03,15,23,30.20
2017,09,03,15,24,30.10
2017,09,03,15,25,30.10
2017,09,03,15,26,30.10
2017,09,03,15,27,30.10
2017,09,03,15,28,30.10
2017,09,03,15,29,30.10
2017,09,03,15,30,30.10
2017,09,03,15,31,30.10
2017,09,03,15,32,30.00
2017,09,03,15,33,29.90
2017,09,03,15,34,29.80
2017,09,03,15,35,29.70
2017,09,03,15,36,29.70
2017,09,03,15,37,29.60
2017,09,03,15,38,29.50
2017,09,03,15,39,29.40
2017,09,03,15,40,29.30
2017,09,03,15,41,29.20
2017,09,03,15,42,29.10
2017,09,03,15,43,29.00
2017,09,03,15,44,28.90
2017,09,03,15,45,28.90
2017,09,03,15,46,28.80
2017,09,03,15,47,28.80
2017,09,03,15,48,28.80
2017,09,03,15,49,28.80
2017,09,03,15,50,28.90
2017,09,03,15,51,28.90
2017,09,03,15,52,29.00
2017,09,03,15,53,29.00
2017,09,03,15,54,29.10
2017,09,03,15,55,29.10
2017,09,03,15,56,29.10
2017,09,03,15,57,29.10
2017,09,03,15,58,29.10
2017,09,03,15,59,29.10
2017,09,03,16,00,29.10
2017,09,03,16,01,29.10
2017,09,03,16,02,29.20
2017,09,03,16,03,29.20
2017,09,03,16,04,29.20
2017,09,03,16,05,29.20
2017,09,03,16,06,29.20
2017,09,03,16,07,29.20
2017,09,03,16,08,29.20
2017,09,03,16,09,29.10
2017,09,03,16,10,29.10
2017,09,03,16,11,29.10
2017,09,03,16,12,29.10
2017,09,03,16,13,29.10
2017,09,03,16,14,29.10
2017,09,03,16,15,29.10
2017,09,03,16,16,29.20
2017,09,03,16,17,29.10
2017,09,03,16,18,29.10
2017,09,03,16,19,29.00
2017,09,03,16,20,29.00
2017,09,03,16,21,29.00
2017,09,03,16,22,28.90
2017,09,03,16,23,28.90
2017,09,03,16,24,28.90
2017,09,03,16,25,28.90
2017,09,03,16,26,28.90
2017,09,03,16,27,29.00
2017,09,03,16,28,29.00
2017,09,03,16,29,29.00
2017,09,03,16,30,29.00
2017,09,03,16,31,29.10
2017,09,03,16,32,29.10
2017,09,03,16,33,29.20
2017,09,03,16,34,29.20
2017,09,03,16,35,29.20
2017,09,03,16,36,29.20
2017,09,03,16,37,29.30
2017,09,03,16,38,29.30
2017,09,03,16,39,29.40
2017,09,03,16,40,29.40
2017,09,03,16,41,29.50
2017,09,03,16,42,29.50
2017,09,03,16,43,29.60
2017,09,03,16,44,29.70
2017,09,03,16,45,29.80
2017,09,03,16,46,29.90
2017,09,03,16,47,30.00
2017,09,03,16,48,30.10
2017,09,03,16,49,30.20
2017,09,03,16,50,30.20
2017,09,03,16,51,30.30
2017,09,03,16,52,30.20
2017,09,03,16,53,30.20
2017,09,03,16,54,30.20
2017,09,03,16,55,30.20
2017,09,03,16,56,30.20
2017,09,03,16,57,30.20
2017,09,03,16,58,30.30
2017,09,03,16,59,30.30
2017,09,03,17,00,30.40
2017,09,03,17,01,30.50
2017,09,03,17,02,30.60
2017,09,03,17,03,30.70
2017,09,03,17,04,30.70
2017,09,03,17,05,30.70
2017,09,03,17,06,30.80
2017,09,03,17,07,30.80
2017,09,03,17,08,30.90
2017,09,03,17,09,30.90
2017,09,03,17,10,31.00
2017,09,03,17,11,31.10
2017,09,03,17,12,31.10
2017,09,03,17,13,31.10
2017,09,03,17,14,31.10
2017,09,03,17,15,31.20
2017,09,03,17,16,31.10
2017,09,03,17,17,31.10
2017,09,03,17,18,31.10
2017,09,03,17,19,31.10